GW3496 Weather Reports


time (UTC)temp
C
wind
direction
speed
KPH
gust
KPH
rain 1hr
cm
rain 24hr
cm
rain mn
cm
humidity
%
barometer
mb
20260903124541 23 349 9.7 17.7 0.00 0.00 0.00 94 1016.1
20260903123050 23 328 3.2 17.7 0.00 0.00 0.00 94 1016.2
20260903121548 23 28 3.2 11.3 0.00 0.00 0.00 94 1015.7
20260903120045 23 261 0.0 0.0 0.00 0.00 0.00 94 1015.3
20260903114553 23 261 0.0 0.0 0.00 0.00 0.00 94 1015.1
20260903113051 23 261 0.0 0.0 0.00 0.00 0.00 94 1014.9
20260903111559 23 261 0.0 6.4 0.00 0.00 0.00 94 1014.7
20260903110110 23 178 0.0 0.0 0.00 0.00 0.00 94 1014.4
20260903104541 23 209 0.0 3.2 0.00 0.00 0.00 94 1014.3
20260903103051 23 165 3.2 6.4 0.00 0.00 0.00 93 1014.2
20260903101552 23 182 3.2 8.0 0.00 0.00 0.00 93 1014.1
20260903100059 23 187 4.8 8.0 0.00 0.00 0.00 93 1014.0
20260903094555 23 113 0.0 0.0 0.00 0.00 0.00 93 1014.3
20260903093049 23 90 0.0 3.2 0.00 0.00 0.00 93 1014.5
20260903091554 23 130 0.0 0.0 0.00 0.00 0.00 93 1014.4
20260903090053 23 320 0.0 0.0 0.00 0.00 0.00 93 1014.4
20260903084552 23 44 0.0 3.2 0.00 0.00 0.00 92 1014.3
20260903083048 23 145 3.2 6.4 0.00 0.00 0.00 92 1014.1
20260903081557 23 113 1.6 8.0 0.00 0.00 0.00 92 1014.2
20260903080054 23 157 0.0 0.0 0.00 0.00 0.00 92 1013.8
20260903074605 23 117 0.0 3.2 0.00 0.00 0.00 92 1014.3
20260903073050 23 209 3.2 8.0 0.00 0.00 0.00 91 1013.8
20260903071557 23 125 3.2 9.7 0.00 0.00 0.00 91 1013.8
20260903070056 23 155 3.2 9.7 0.00 0.00 0.00 90 1013.8
20260903064603 23 170 4.8 6.4 0.00 0.00 0.00 90 1014.0
20260903063050 23 133 0.0 0.0 0.00 0.00 0.00 90 1014.2
20260903061552 23 120 0.0 6.4 0.00 0.00 0.00 89 1014.4
20260903054618 24 119 0.0 0.0 0.00 0.00 0.00 88 1015.0
20260903053118 24 103 0.0 6.4 0.00 0.00 0.00 88 1015.0
20260903051603 23 129 0.0 4.8 0.00 0.00 0.00 89 1014.9
20260903050129 23 130 0.0 0.0 0.00 0.00 0.00 90 1015.0
20260903044607 23 182 0.0 0.0 0.00 0.00 0.00 91 1015.3
20260903043103 23 20 0.0 0.0 0.00 0.00 0.00 91 1015.4
20260903040039 23 20 0.0 6.4 0.00 0.00 0.00 90 1015.1
20260903034545 23 43 4.8 8.0 0.00 0.00 0.00 90 1014.9
20260903033043 24 29 0.0 0.0 0.00 0.00 0.00 90 1014.8
20260903031542 24 32 0.0 0.0 0.00 0.00 0.00 89 1014.7
20260903030045 24 355 0.0 0.0 0.00 0.00 0.00 87 1014.7
20260903024547 25 275 0.0 8.0 0.00 0.00 0.00 87 1014.6
20260903023043 25 273 0.0 4.8 0.00 0.00 0.00 86 1014.7
20260903021553 25 273 0.0 0.0 0.00 0.00 0.00 85 1014.7
20260903020037 25 267 3.2 9.7 0.00 0.00 0.00 85 1014.9
20260903014544 25 286 3.2 12.9 0.00 0.00 0.00 84 1015.1
20260903013043 25 254 1.6 6.4 0.00 0.00 0.00 83 1015.2
20260903011545 25 255 0.0 4.8 0.00 0.00 0.00 82 1015.1
20260903010047 25 286 0.0 4.8 0.00 0.00 0.00 80 1015.5
20260903004557 25 347 0.0 0.0 0.00 0.00 0.00 79 1015.4
20260903003044 26 329 0.0 4.8 0.00 0.00 0.00 78 1015.2
20260903001541 26 23 0.0 6.4 0.00 0.00 0.00 77 1015.0
20260903000040 26 331 0.0 8.0 0.00 0.00 0.00 77 1015.1
20260902234541 26 11 0.0 0.0 0.00 0.00 0.00 75 1014.9
20260902233044 27 61 0.0 0.0 0.00 0.00 0.00 74 1015.2
20260902231548 27 115 0.0 9.7 0.00 0.00 0.00 75 1015.5
20260902230039 27 117 1.6 8.0 0.00 0.00 0.00 74 1015.8
20260902224546 27 179 0.0 0.0 0.00 0.00 0.00 75 1015.6
20260902223043 27 134 0.0 6.4 0.00 0.00 0.00 75 1015.8
20260902221540 27 138 6.4 11.3 0.00 0.00 0.00 74 1016.1
20260902220052 27 138 3.2 14.5 0.00 0.00 0.00 73 1015.0
20260902214550 27 118 6.4 11.3 0.00 0.00 0.00 73 1015.3
20260902213040 27 127 4.8 14.5 0.00 0.00 0.00 73 1015.2
20260902211550 27 84 4.8 11.3 0.00 0.00 0.00 74 1015.5
20260902210050 27 118 9.7 16.1 0.00 0.00 0.00 74 1015.5
20260902204550 27 103 9.7 25.7 0.00 0.00 0.00 72 1016.2
20260902203041 28 103 9.7 19.3 0.00 0.00 0.00 69 1015.9
20260902201603 28 144 14.5 25.7 0.00 0.00 0.00 69 1016.1
20260902200046 28 136 9.7 17.7 0.00 0.00 0.00 69 1016.2
20260902194543 29 108 9.7 30.6 0.00 0.00 0.00 68 1016.8
20260902193049 31 79 35.4 54.7 0.00 0.00 0.00 63 1016.6
20260902191549 33 93 16.1 25.7 0.00 0.00 0.00 62 1015.7
20260902190042 33 71 8.0 27.4 0.00 0.00 0.00 62 1015.5
20260902184543 33 90 8.0 24.1 0.00 0.00 0.00 61 1016.1
20260902183050 33 125 11.3 19.3 0.00 0.00 0.00 60 1016.2
20260902181554 33 94 6.4 16.1 0.00 0.00 0.00 60 1016.1
20260902180055 33 5 6.4 9.7 0.00 0.00 0.00 60 1016.3
20260902174549 33 88 6.4 12.9 0.00 0.00 0.00 60 1016.6
20260902173040 33 92 8.0 16.1 0.00 0.00 0.00 60 1016.5
20260902171540 33 65 3.2 14.5 0.00 0.00 0.00 61 1016.6
20260902170050 32 319 3.2 16.1 0.00 0.00 0.00 62 1016.5
20260902164552 32 144 1.6 12.9 0.00 0.00 0.00 62 1016.8
20260902163047 32 113 6.4 11.3 0.00 0.00 0.00 62 1016.7
20260902161600 32 111 4.8 12.9 0.00 0.00 0.00 62 1016.7
20260902160049 32 165 0.0 6.4 0.00 0.00 0.00 62 1016.7
20260902154557 32 133 4.8 12.9 0.00 0.00 0.00 63 1016.5
20260902153050 31 59 1.6 6.4 0.00 0.00 0.00 65 1016.7
20260902151545 31 72 1.6 9.7 0.00 0.00 0.00 67 1016.8
20260902150041 30 349 4.8 12.9 0.00 0.00 0.00 67 1017.0
20260902144550 30 66 6.4 12.9 0.00 0.00 0.00 67 1016.9
20260902143056 30 35 4.8 14.5 0.00 0.00 0.00 73 1017.1
20260902141541 30 355 1.6 8.0 0.00 0.00 0.00 73 1016.7
20260902140042 28 5 1.6 8.0 0.00 0.00 0.00 76 1016.7
20260902134553 28 340 0.0 6.4 0.00 0.00 0.00 77 1016.4
20260902133059 27 32 4.8 6.4 0.00 0.00 0.00 78 1016.3
20260902131545 27 274 0.0 0.0 0.00 0.00 0.00 80 1016.1
20260902130054 27 24 1.6 8.0 0.00 0.00 0.00 81 1015.9